Location: Rounton
(54.4000°N, 1.3500°W)
Time: 16:36:00
(UTC+00:00)

Tiros 1 - Pass Details

Date: 07 December 2021
Orbit: 629 x 664 km, 48.4° (Epoch: 19 January)

Event Time Altitude Azimuth Distance (km) Brightness Sun altitude
Rises 16:41:23 0° 193° (SSW) 2,908 11.2 -8.0°
Reaches altitude 10° 16:45:12 10° 161° (SSE) 2,011 9.8 -8.5°
Maximum altitude 16:46:48 12° 141° (SE) 1,904 9.4 -8.7°
Drops below altitude 10° 16:48:25 10° 120° (ESE) 2,020 9.4 -8.9°
Enters shadow 16:50:21 - 101° (ESE) 2,403 9.6 -9.2°
